Location: St. Louis
(38.6270°N, 90.1994°W)
Time: 11:05:34
(UTC-06:00)

S-56A Canister/Altair - Pass Details

Date: 01 December 2021
Orbit: 634 x 2499 km, 38.9° (Epoch: 26 January)

Event Time Altitude Azimuth Distance (km) Brightness Sun altitude
Rises 02:41:27 0° 265° (W) 4,299 - -49.8°
Reaches altitude 10° 02:44:50 10° 266° (W) 3,038 - -49.1°
Maximum altitude 02:51:50 88° 356° (N) 857 - -47.8°
Drops below altitude 10° 02:56:47 10° 86° (E) 2,178 - -46.8°
Exits shadow 02:57:48 - 87° (E) 2,575 10.9 -46.6°
Sets 02:58:53 0° 87° (E) 3,006 11.3 -46.4°
